Year,Month,Day,Hour,Minute,Value (Times are PST for temperature in C)
2012,08,23,00,00,11.10
2012,08,23,00,01,11.10
2012,08,23,00,02,11.10
2012,08,23,00,03,11.20
2012,08,23,00,04,11.20
2012,08,23,00,05,11.20
2012,08,23,00,06,11.20
2012,08,23,00,07,11.20
2012,08,23,00,08,11.20
2012,08,23,00,09,11.20
2012,08,23,00,10,11.10
2012,08,23,00,11,11.10
2012,08,23,00,12,11.10
2012,08,23,00,13,11.10
2012,08,23,00,14,11.10
2012,08,23,00,15,11.00
2012,08,23,00,16,11.00
2012,08,23,00,17,11.00
2012,08,23,00,18,10.90
2012,08,23,00,19,10.90
2012,08,23,00,20,10.90
2012,08,23,00,21,10.90
2012,08,23,00,22,10.80
2012,08,23,00,23,10.80
2012,08,23,00,24,10.80
2012,08,23,00,25,10.80
2012,08,23,00,26,10.80
2012,08,23,00,27,10.80
2012,08,23,00,28,10.70
2012,08,23,00,29,10.70
2012,08,23,00,30,10.70
2012,08,23,00,31,10.70
2012,08,23,00,32,10.70
2012,08,23,00,33,10.70
2012,08,23,00,34,10.70
2012,08,23,00,35,10.70
2012,08,23,00,36,10.70
2012,08,23,00,37,10.70
2012,08,23,00,38,10.70
2012,08,23,00,39,10.70
2012,08,23,00,40,10.70
2012,08,23,00,41,10.70
2012,08,23,00,42,10.70
2012,08,23,00,43,10.70
2012,08,23,00,44,10.70
2012,08,23,00,45,10.60
2012,08,23,00,46,10.60
2012,08,23,00,47,10.60
2012,08,23,00,48,10.60
2012,08,23,00,49,10.60
2012,08,23,00,50,10.50
2012,08,23,00,51,10.50
2012,08,23,00,52,10.50
2012,08,23,00,53,10.40
2012,08,23,00,54,10.40
2012,08,23,00,55,10.40
2012,08,23,00,56,10.40
2012,08,23,00,57,10.40
2012,08,23,00,58,10.30
2012,08,23,00,59,10.30
2012,08,23,01,00,10.30
2012,08,23,01,01,10.30
2012,08,23,01,02,10.20
2012,08,23,01,03,10.20
2012,08,23,01,04,10.20
2012,08,23,01,05,10.20
2012,08,23,01,06,10.10
2012,08,23,01,07,10.10
2012,08,23,01,08,10.10
2012,08,23,01,09,10.10
2012,08,23,01,10,10.10
2012,08,23,01,11,10.10
2012,08,23,01,12,10.00
2012,08,23,01,13,10.00
2012,08,23,01,14,10.00
2012,08,23,01,15,10.00
2012,08,23,01,16,10.00
2012,08,23,01,17,10.00
2012,08,23,01,18,10.00
2012,08,23,01,19,10.00
2012,08,23,01,20,10.00
2012,08,23,01,21,10.00
2012,08,23,01,22,10.00
2012,08,23,01,23,10.10
2012,08,23,01,24,10.10
2012,08,23,01,25,10.10
2012,08,23,01,26,10.10
2012,08,23,01,27,10.00
2012,08,23,01,28,10.00
2012,08,23,01,29,10.00
2012,08,23,01,30,10.00
2012,08,23,01,31,9.90
2012,08,23,01,32,9.90
2012,08,23,01,33,9.90
2012,08,23,01,34,9.90
2012,08,23,01,35,9.80
2012,08,23,01,36,9.80
2012,08,23,01,37,9.80
2012,08,23,01,38,9.80
2012,08,23,01,39,9.80
2012,08,23,01,40,9.80
2012,08,23,01,41,9.80
2012,08,23,01,42,9.80
2012,08,23,01,43,9.80
2012,08,23,01,44,9.80
2012,08,23,01,45,9.80
2012,08,23,01,46,9.80
2012,08,23,01,47,9.80
2012,08,23,01,48,9.80
2012,08,23,01,49,9.80
2012,08,23,01,50,9.80
2012,08,23,01,51,9.80
2012,08,23,01,52,9.80
2012,08,23,01,53,9.70
2012,08,23,01,54,9.70
2012,08,23,01,55,9.70
2012,08,23,01,56,9.70
2012,08,23,01,57,9.70
2012,08,23,01,58,9.70
2012,08,23,01,59,9.70
2012,08,23,02,00,9.70
2012,08,23,02,01,9.70
2012,08,23,02,02,9.70
2012,08,23,02,03,9.70
2012,08,23,02,04,9.70
2012,08,23,02,05,9.70
2012,08,23,02,06,9.70
2012,08,23,02,07,9.70
2012,08,23,02,08,9.60
2012,08,23,02,09,9.60
2012,08,23,02,10,9.60
2012,08,23,02,11,9.60
2012,08,23,02,12,9.60
2012,08,23,02,13,9.60
2012,08,23,02,14,9.70
2012,08,23,02,15,9.70
2012,08,23,02,16,9.70
2012,08,23,02,17,9.70
2012,08,23,02,18,9.70
2012,08,23,02,19,9.80
2012,08,23,02,20,9.80
2012,08,23,02,21,9.80
2012,08,23,02,22,9.80
2012,08,23,02,23,9.80
2012,08,23,02,24,9.80
2012,08,23,02,25,9.80
2012,08,23,02,26,9.80
2012,08,23,02,27,9.80
2012,08,23,02,28,9.80
2012,08,23,02,29,9.80
2012,08,23,02,30,9.80
2012,08,23,02,31,9.80
2012,08,23,02,32,9.80
2012,08,23,02,33,9.80
2012,08,23,02,34,9.80
2012,08,23,02,35,9.80
2012,08,23,02,36,9.80
2012,08,23,02,37,9.80
2012,08,23,02,38,9.80
2012,08,23,02,39,9.80
2012,08,23,02,40,9.80
2012,08,23,02,41,9.80
2012,08,23,02,42,9.80
2012,08,23,02,43,9.80
2012,08,23,02,44,9.80
2012,08,23,02,45,9.80
2012,08,23,02,46,9.80
2012,08,23,02,47,9.80
2012,08,23,02,48,9.80
2012,08,23,02,49,9.80
2012,08,23,02,50,9.80
2012,08,23,02,51,9.80
2012,08,23,02,52,9.80
2012,08,23,02,53,9.90
2012,08,23,02,54,9.90
2012,08,23,02,55,9.90
2012,08,23,02,56,9.90
2012,08,23,02,57,9.90
2012,08,23,02,58,9.90
2012,08,23,02,59,9.90
2012,08,23,03,00,9.90
2012,08,23,03,01,9.90
2012,08,23,03,02,9.90
2012,08,23,03,03,9.80
2012,08,23,03,04,9.80
2012,08,23,03,05,9.80
2012,08,23,03,06,9.80
2012,08,23,03,07,9.80
2012,08,23,03,08,9.80
2012,08,23,03,09,9.80
2012,08,23,03,10,9.80
2012,08,23,03,11,9.70
2012,08,23,03,12,9.70
2012,08,23,03,13,9.70
2012,08,23,03,14,9.70
2012,08,23,03,15,9.70
2012,08,23,03,16,9.70
2012,08,23,03,17,9.70
2012,08,23,03,18,9.70
2012,08,23,03,19,9.70
2012,08,23,03,20,9.70
2012,08,23,03,21,9.70
2012,08,23,03,22,9.70
2012,08,23,03,23,9.70
2012,08,23,03,24,9.70
2012,08,23,03,25,9.70
2012,08,23,03,26,9.70
2012,08,23,03,27,9.70
2012,08,23,03,28,9.60
2012,08,23,03,29,9.60
2012,08,23,03,30,9.60
2012,08,23,03,31,9.60
2012,08,23,03,32,9.60
2012,08,23,03,33,9.60
2012,08,23,03,34,9.60
2012,08,23,03,35,9.60
2012,08,23,03,36,9.60
2012,08,23,03,37,9.60
2012,08,23,03,38,9.60
2012,08,23,03,39,9.60
2012,08,23,03,40,9.70
2012,08,23,03,41,9.70
2012,08,23,03,42,9.70
2012,08,23,03,43,9.80
2012,08,23,03,44,9.80
2012,08,23,03,45,9.80
2012,08,23,03,46,9.80
2012,08,23,03,47,9.90
2012,08,23,03,48,9.90
2012,08,23,03,49,9.90
2012,08,23,03,50,9.90
2012,08,23,03,51,10.00
2012,08,23,03,52,10.00
2012,08,23,03,53,10.00
2012,08,23,03,54,10.10
2012,08,23,03,55,10.10
2012,08,23,03,56,10.10
2012,08,23,03,57,10.20
2012,08,23,03,58,10.20
2012,08,23,03,59,10.20
2012,08,23,04,00,10.20
2012,08,23,04,01,10.30
2012,08,23,04,02,10.30
2012,08,23,04,03,10.30
2012,08,23,04,04,10.30
2012,08,23,04,05,10.30
2012,08,23,04,06,10.30
2012,08,23,04,07,10.30
2012,08,23,04,08,10.30
2012,08,23,04,09,10.40
2012,08,23,04,10,10.40
2012,08,23,04,11,10.40
2012,08,23,04,12,10.40
2012,08,23,04,13,10.40
2012,08,23,04,14,10.40
2012,08,23,04,15,10.40
2012,08,23,04,16,10.40
2012,08,23,04,17,10.40
2012,08,23,04,18,10.40
2012,08,23,04,19,10.40
2012,08,23,04,20,10.50
2012,08,23,04,21,10.50
2012,08,23,04,22,10.50
2012,08,23,04,23,10.50
2012,08,23,04,24,10.50
2012,08,23,04,25,10.50
2012,08,23,04,26,10.60
2012,08,23,04,27,10.60
2012,08,23,04,28,10.60
2012,08,23,04,29,10.60
2012,08,23,04,30,10.60
2012,08,23,04,31,10.60
2012,08,23,04,32,10.60
2012,08,23,04,33,10.60
2012,08,23,04,34,10.60
2012,08,23,04,35,10.70
2012,08,23,04,36,10.70
2012,08,23,04,37,10.70
2012,08,23,04,38,10.70
2012,08,23,04,39,10.70
2012,08,23,04,40,10.80
2012,08,23,04,41,10.80
2012,08,23,04,42,10.80
2012,08,23,04,43,10.80
2012,08,23,04,44,10.80
2012,08,23,04,45,10.80
2012,08,23,04,46,10.80
2012,08,23,04,47,10.80
2012,08,23,04,48,10.80
2012,08,23,04,49,10.90
2012,08,23,04,50,10.90
2012,08,23,04,51,10.90
2012,08,23,04,52,10.90
2012,08,23,04,53,10.90
2012,08,23,04,54,10.90
2012,08,23,04,55,11.00
2012,08,23,04,56,11.00
2012,08,23,04,57,11.10
2012,08,23,04,58,11.10
2012,08,23,04,59,11.10
2012,08,23,05,00,11.10
2012,08,23,05,01,11.10
2012,08,23,05,02,11.20
2012,08,23,05,03,11.20
2012,08,23,05,04,11.20
2012,08,23,05,05,11.20
2012,08,23,05,06,11.30
2012,08,23,05,07,11.30
2012,08,23,05,08,11.30
2012,08,23,05,09,11.30
2012,08,23,05,10,11.30
2012,08,23,05,11,11.40
2012,08,23,05,12,11.40
2012,08,23,05,13,11.40
2012,08,23,05,14,11.50
2012,08,23,05,15,11.50
2012,08,23,05,16,11.50
2012,08,23,05,17,11.60
2012,08,23,05,18,11.60
2012,08,23,05,19,11.60
2012,08,23,05,20,11.70
2012,08,23,05,21,11.70
2012,08,23,05,22,11.80
2012,08,23,05,23,11.80
2012,08,23,05,24,11.80
2012,08,23,05,25,11.80
2012,08,23,05,26,11.90
2012,08,23,05,27,11.90
2012,08,23,05,28,11.90
2012,08,23,05,29,12.00
2012,08,23,05,30,12.00
2012,08,23,05,31,12.00
2012,08,23,05,32,12.10
2012,08,23,05,33,12.10
2012,08,23,05,34,12.10
2012,08,23,05,35,12.10
2012,08,23,05,36,12.20
2012,08,23,05,37,12.20
2012,08,23,05,38,12.20
2012,08,23,05,39,12.20
2012,08,23,05,40,12.20
2012,08,23,05,41,12.30
2012,08,23,05,42,12.30
2012,08,23,05,43,12.30
2012,08,23,05,44,12.30
2012,08,23,05,45,12.30
2012,08,23,05,46,12.30
2012,08,23,05,47,12.30
2012,08,23,05,48,12.40
2012,08,23,05,49,12.40
2012,08,23,05,50,12.40
2012,08,23,05,51,12.40
2012,08,23,05,52,12.40
2012,08,23,05,53,12.50
2012,08,23,05,54,12.50
2012,08,23,05,55,12.50
2012,08,23,05,56,12.50
2012,08,23,05,57,12.50
2012,08,23,05,58,12.50
2012,08,23,05,59,12.50
2012,08,23,06,00,12.50
2012,08,23,06,01,12.50
2012,08,23,06,02,12.50
2012,08,23,06,03,12.50
2012,08,23,06,04,12.50
2012,08,23,06,05,12.50
2012,08,23,06,06,12.50
2012,08,23,06,07,12.50
2012,08,23,06,08,12.50
2012,08,23,06,09,12.50
2012,08,23,06,10,12.50
2012,08,23,06,11,12.50
2012,08,23,06,12,12.40
2012,08,23,06,13,12.40
2012,08,23,06,14,12.40
2012,08,23,06,15,12.40
2012,08,23,06,16,12.40
2012,08,23,06,17,12.40
2012,08,23,06,18,12.40
2012,08,23,06,19,12.40
2012,08,23,06,20,12.40
2012,08,23,06,21,12.40
2012,08,23,06,22,12.40
2012,08,23,06,23,12.40
2012,08,23,06,24,12.40
2012,08,23,06,25,12.40
2012,08,23,06,26,12.30
2012,08,23,06,27,12.30
2012,08,23,06,28,12.30
2012,08,23,06,29,12.30
2012,08,23,06,30,12.30
2012,08,23,06,31,12.30
2012,08,23,06,32,12.30
2012,08,23,06,33,12.30
2012,08,23,06,34,12.30
2012,08,23,06,35,12.30
2012,08,23,06,36,12.20
2012,08,23,06,37,12.20
2012,08,23,06,38,12.20
2012,08,23,06,39,12.20
2012,08,23,06,40,12.20
2012,08,23,06,41,12.20
2012,08,23,06,42,12.20
2012,08,23,06,43,12.20
2012,08,23,06,44,12.20
2012,08,23,06,45,12.20
2012,08,23,06,46,12.20
2012,08,23,06,47,12.20
2012,08,23,06,48,12.20
2012,08,23,06,49,12.20
2012,08,23,06,50,12.20
2012,08,23,06,51,12.20
2012,08,23,06,52,12.20
2012,08,23,06,53,12.20
2012,08,23,06,54,12.20
2012,08,23,06,55,12.20
2012,08,23,06,56,12.20
2012,08,23,06,57,12.20
2012,08,23,06,58,12.20
2012,08,23,06,59,12.20
2012,08,23,07,00,12.20
2012,08,23,07,01,12.20
2012,08,23,07,02,12.20
2012,08,23,07,03,12.20
2012,08,23,07,04,12.20
2012,08,23,07,05,12.20
2012,08,23,07,06,12.20
2012,08,23,07,07,12.20
2012,08,23,07,08,12.20
2012,08,23,07,09,12.20
2012,08,23,07,10,12.20
2012,08,23,07,11,12.20
2012,08,23,07,12,12.20
2012,08,23,07,13,12.20
2012,08,23,07,14,12.20
2012,08,23,07,15,12.20
2012,08,23,07,16,12.20
2012,08,23,07,17,12.20
2012,08,23,07,18,12.20
2012,08,23,07,19,12.20
2012,08,23,07,20,12.20
2012,08,23,07,21,12.30
2012,08,23,07,22,12.30
2012,08,23,07,23,12.30
2012,08,23,07,24,12.30
2012,08,23,07,25,12.30
2012,08,23,07,26,12.30
2012,08,23,07,27,12.30
2012,08,23,07,28,12.30
2012,08,23,07,29,12.30
2012,08,23,07,30,12.30
2012,08,23,07,31,12.30
2012,08,23,07,32,12.30
2012,08,23,07,33,12.40
2012,08,23,07,34,12.40
2012,08,23,07,35,12.40
2012,08,23,07,36,12.40
2012,08,23,07,37,12.40
2012,08,23,07,38,12.40
2012,08,23,07,39,12.40
2012,08,23,07,40,12.40
2012,08,23,07,41,12.50
2012,08,23,07,42,12.50
2012,08,23,07,43,12.50
2012,08,23,07,44,12.50
2012,08,23,07,45,12.50
2012,08,23,07,46,12.50
2012,08,23,07,47,12.50
2012,08,23,07,48,12.50
2012,08,23,07,49,12.50
2012,08,23,07,50,12.60
2012,08,23,07,51,12.60
2012,08,23,07,52,12.60
2012,08,23,07,53,12.60
2012,08,23,07,54,12.60
2012,08,23,07,55,12.60
2012,08,23,07,56,12.60
2012,08,23,07,57,12.60
2012,08,23,07,58,12.70
2012,08,23,07,59,12.70
2012,08,23,08,00,12.70
2012,08,23,08,01,12.70
2012,08,23,08,02,12.70
2012,08,23,08,03,12.70
2012,08,23,08,04,12.70
2012,08,23,08,05,12.70
2012,08,23,08,06,12.70
2012,08,23,08,07,12.70
2012,08,23,08,08,12.80
2012,08,23,08,09,12.80
2012,08,23,08,10,12.80
2012,08,23,08,11,12.80
2012,08,23,08,12,12.80
2012,08,23,08,13,12.80
2012,08,23,08,14,12.80
2012,08,23,08,15,12.80
2012,08,23,08,16,12.80
2012,08,23,08,17,12.80
2012,08,23,08,18,12.80
2012,08,23,08,19,12.80
2012,08,23,08,20,12.80
2012,08,23,08,21,12.90
2012,08,23,08,22,12.90
2012,08,23,08,23,12.90
2012,08,23,08,24,12.90
2012,08,23,08,25,12.90
2012,08,23,08,26,13.00
2012,08,23,08,27,13.00
2012,08,23,08,28,13.00
2012,08,23,08,29,13.10
2012,08,23,08,30,13.10
2012,08,23,08,31,13.10
2012,08,23,08,32,13.10
2012,08,23,08,33,13.20
2012,08,23,08,34,13.20
2012,08,23,08,35,13.20
2012,08,23,08,36,13.20
2012,08,23,08,37,13.20
2012,08,23,08,38,13.30
2012,08,23,08,39,13.30
2012,08,23,08,40,13.30
2012,08,23,08,41,13.30
2012,08,23,08,42,13.30
2012,08,23,08,43,13.30
2012,08,23,08,44,13.30
2012,08,23,08,45,13.30
2012,08,23,08,46,13.40
2012,08,23,08,47,13.40
2012,08,23,08,48,13.40
2012,08,23,08,49,13.40
2012,08,23,08,50,13.50
2012,08,23,08,51,13.50
2012,08,23,08,52,13.60
2012,08,23,08,53,13.60
2012,08,23,08,54,13.60
2012,08,23,08,55,13.70
2012,08,23,08,56,13.80
2012,08,23,08,57,13.80
2012,08,23,08,58,13.90
2012,08,23,08,59,14.00
2012,08,23,09,00,14.10
2012,08,23,09,01,14.20
2012,08,23,09,02,14.30
2012,08,23,09,03,14.40
2012,08,23,09,04,14.40
2012,08,23,09,05,14.50
2012,08,23,09,06,14.60
2012,08,23,09,07,14.70
2012,08,23,09,08,14.80
2012,08,23,09,09,14.90
2012,08,23,09,10,15.00
2012,08,23,09,11,15.00
2012,08,23,09,12,15.00
2012,08,23,09,13,15.00
2012,08,23,09,14,15.10
2012,08,23,09,15,15.20
2012,08,23,09,16,15.30
2012,08,23,09,17,15.40
2012,08,23,09,18,15.40
2012,08,23,09,19,15.40
2012,08,23,09,20,15.50
2012,08,23,09,21,15.50
2012,08,23,09,22,15.50
2012,08,23,09,23,15.60
2012,08,23,09,24,15.60
2012,08,23,09,25,15.60
2012,08,23,09,26,15.70
2012,08,23,09,27,15.70
2012,08,23,09,28,15.70
2012,08,23,09,29,15.70
2012,08,23,09,30,15.70
2012,08,23,09,31,15.80
2012,08,23,09,32,15.80
2012,08,23,09,33,15.80
2012,08,23,09,34,15.80
2012,08,23,09,35,15.80
2012,08,23,09,36,15.80
2012,08,23,09,37,15.70
2012,08,23,09,38,15.70
2012,08,23,09,39,15.70
2012,08,23,09,40,15.70
2012,08,23,09,41,15.70
2012,08,23,09,42,15.70
2012,08,23,09,43,15.70
2012,08,23,09,44,15.70
2012,08,23,09,45,15.70
2012,08,23,09,46,15.70
2012,08,23,09,47,15.70
2012,08,23,09,48,15.70
2012,08,23,09,49,15.70
2012,08,23,09,50,15.70
2012,08,23,09,51,15.70
2012,08,23,09,52,15.80
2012,08,23,09,53,15.80
2012,08,23,09,54,15.80
2012,08,23,09,55,15.90
2012,08,23,09,56,15.90
2012,08,23,09,57,15.90
2012,08,23,09,58,15.90
2012,08,23,09,59,15.90
2012,08,23,10,00,15.90
2012,08,23,10,01,16.00
2012,08,23,10,02,16.00
2012,08,23,10,03,16.10
2012,08,23,10,04,16.10
2012,08,23,10,05,16.20
2012,08,23,10,06,16.30
2012,08,23,10,07,16.30
2012,08,23,10,08,16.30
2012,08,23,10,09,16.40
2012,08,23,10,10,16.40
2012,08,23,10,11,16.40
2012,08,23,10,12,16.40
2012,08,23,10,13,16.40
2012,08,23,10,14,16.40
2012,08,23,10,15,16.40
2012,08,23,10,16,16.40
2012,08,23,10,17,16.40
2012,08,23,10,18,16.40
2012,08,23,10,19,16.40
2012,08,23,10,20,16.50
2012,08,23,10,21,16.60
2012,08,23,10,22,16.60
2012,08,23,10,23,16.70
2012,08,23,10,24,16.80
2012,08,23,10,25,16.90
2012,08,23,10,26,17.00
2012,08,23,10,27,17.10
2012,08,23,10,28,17.20
2012,08,23,10,29,17.20
2012,08,23,10,30,17.30
2012,08,23,10,31,17.30
2012,08,23,10,32,17.30
2012,08,23,10,33,17.40
2012,08,23,10,34,17.50
2012,08,23,10,35,17.50
2012,08,23,10,36,17.50
2012,08,23,10,37,17.50
2012,08,23,10,38,17.60
2012,08,23,10,39,17.60
2012,08,23,10,40,17.60
2012,08,23,10,41,17.50
2012,08,23,10,42,17.50
2012,08,23,10,43,17.40
2012,08,23,10,44,17.40
2012,08,23,10,45,17.40
2012,08,23,10,46,17.30
2012,08,23,10,47,17.20
2012,08,23,10,48,17.20
2012,08,23,10,49,17.10
2012,08,23,10,50,17.10
2012,08,23,10,51,17.10
2012,08,23,10,52,17.00
2012,08,23,10,53,16.90
2012,08,23,10,54,16.90
2012,08,23,10,55,16.90
2012,08,23,10,56,16.80
2012,08,23,10,57,16.80
2012,08,23,10,58,16.80
2012,08,23,10,59,16.70
2012,08,23,11,00,16.70
2012,08,23,11,01,16.70
2012,08,23,11,02,16.70
2012,08,23,11,03,16.70
2012,08,23,11,04,16.70
2012,08,23,11,05,16.70
2012,08,23,11,06,16.60
2012,08,23,11,07,16.60
2012,08,23,11,08,16.60
2012,08,23,11,09,16.60
2012,08,23,11,10,16.50
2012,08,23,11,11,16.50
2012,08,23,11,12,16.50
2012,08,23,11,13,16.50
2012,08,23,11,14,16.40
2012,08,23,11,15,16.40
2012,08,23,11,16,16.40
2012,08,23,11,17,16.40
2012,08,23,11,18,16.30
2012,08,23,11,19,16.30
2012,08,23,11,20,16.30
2012,08,23,11,21,16.30
2012,08,23,11,22,16.30
2012,08,23,11,23,16.30
2012,08,23,11,24,16.30
2012,08,23,11,25,16.30
2012,08,23,11,26,16.40
2012,08,23,11,27,16.40
2012,08,23,11,28,16.40
2012,08,23,11,29,16.50
2012,08,23,11,30,16.50
2012,08,23,11,31,16.50
2012,08,23,11,32,16.50
2012,08,23,11,33,16.60
2012,08,23,11,34,16.60
2012,08,23,11,35,16.70
2012,08,23,11,36,16.80
2012,08,23,11,37,16.80
2012,08,23,11,38,16.90
2012,08,23,11,39,17.00
2012,08,23,11,40,17.10
2012,08,23,11,41,17.20
2012,08,23,11,42,17.20
2012,08,23,11,43,17.30
2012,08,23,11,44,17.30
2012,08,23,11,45,17.30
2012,08,23,11,46,17.40
2012,08,23,11,47,17.40
2012,08,23,11,48,17.40
2012,08,23,11,49,17.40
2012,08,23,11,50,17.50
2012,08,23,11,51,17.50
2012,08,23,11,52,17.50
2012,08,23,11,53,17.50
2012,08,23,11,54,17.60
2012,08,23,11,55,17.60
2012,08,23,11,56,17.50
2012,08,23,11,57,17.50
2012,08,23,11,58,17.50
2012,08,23,11,59,17.40
2012,08,23,12,00,17.30
2012,08,23,12,01,17.30
2012,08,23,12,02,17.20
2012,08,23,12,03,17.20
2012,08,23,12,04,17.10
2012,08,23,12,05,17.10
2012,08,23,12,06,17.10
2012,08,23,12,07,17.20
2012,08,23,12,08,17.20
2012,08,23,12,09,17.30
2012,08,23,12,10,17.30
2012,08,23,12,11,17.40
2012,08,23,12,12,17.40
2012,08,23,12,13,17.50
2012,08,23,12,14,17.60
2012,08,23,12,15,17.60
2012,08,23,12,16,17.70
2012,08,23,12,17,17.70
2012,08,23,12,18,17.70
2012,08,23,12,19,17.70
2012,08,23,12,20,17.70
2012,08,23,12,21,17.70
2012,08,23,12,22,17.80
2012,08,23,12,23,17.80
2012,08,23,12,24,17.90
2012,08,23,12,25,17.90
2012,08,23,12,26,18.00
2012,08,23,12,27,18.10
2012,08,23,12,28,18.20
2012,08,23,12,29,18.20
2012,08,23,12,30,18.20
2012,08,23,12,31,18.30
2012,08,23,12,32,18.20
2012,08,23,12,33,18.20
2012,08,23,12,34,18.20
2012,08,23,12,35,18.20
2012,08,23,12,36,18.20
2012,08,23,12,37,18.10
2012,08,23,12,38,18.10
2012,08,23,12,39,18.00
2012,08,23,12,40,18.00
2012,08,23,12,41,17.90
2012,08,23,12,42,17.90
2012,08,23,12,43,17.80
2012,08,23,12,44,17.80
2012,08,23,12,45,17.70
2012,08,23,12,46,17.70
2012,08,23,12,47,17.80
2012,08,23,12,48,17.80
2012,08,23,12,49,17.80
2012,08,23,12,50,17.80
2012,08,23,12,51,17.80
2012,08,23,12,52,17.90
2012,08,23,12,53,18.00
2012,08,23,12,54,18.10
2012,08,23,12,55,18.20
2012,08,23,12,56,18.30
2012,08,23,12,57,18.40
2012,08,23,12,58,18.60
2012,08,23,12,59,18.70
2012,08,23,13,00,18.90
2012,08,23,13,01,19.00
2012,08,23,13,02,19.20
2012,08,23,13,03,19.30
2012,08,23,13,04,19.30
2012,08,23,13,05,19.30
2012,08,23,13,06,19.20
2012,08,23,13,07,19.10
2012,08,23,13,08,19.10
2012,08,23,13,09,19.10
2012,08,23,13,10,19.10
2012,08,23,13,11,19.00
2012,08,23,13,12,18.90
2012,08,23,13,13,18.90
2012,08,23,13,14,18.80
2012,08,23,13,15,18.80
2012,08,23,13,16,18.70
2012,08,23,13,17,18.60
2012,08,23,13,18,18.60
2012,08,23,13,19,18.60
2012,08,23,13,20,18.50
2012,08,23,13,21,18.50
2012,08,23,13,22,18.40
2012,08,23,13,23,18.30
2012,08,23,13,24,18.30
2012,08,23,13,25,18.20
2012,08,23,13,26,18.20
2012,08,23,13,27,18.20
2012,08,23,13,28,18.20
2012,08,23,13,29,18.20
2012,08,23,13,30,18.20
2012,08,23,13,31,18.30
2012,08,23,13,32,18.40
2012,08,23,13,33,18.40
2012,08,23,13,34,18.50
2012,08,23,13,35,18.50
2012,08,23,13,36,18.60
2012,08,23,13,37,18.70
2012,08,23,13,38,18.70
2012,08,23,13,39,18.80
2012,08,23,13,40,18.80
2012,08,23,13,41,18.80
2012,08,23,13,42,18.80
2012,08,23,13,43,18.80
2012,08,23,13,44,18.80
2012,08,23,13,45,18.80
2012,08,23,13,46,18.70
2012,08,23,13,47,18.70
2012,08,23,13,48,18.60
2012,08,23,13,49,18.50
2012,08,23,13,50,18.40
2012,08,23,13,51,18.40
2012,08,23,13,52,18.40
2012,08,23,13,53,18.40
2012,08,23,13,54,18.40
2012,08,23,13,55,18.30
2012,08,23,13,56,18.30
2012,08,23,13,57,18.30
2012,08,23,13,58,18.30
2012,08,23,13,59,18.30
2012,08,23,14,00,18.30
2012,08,23,14,01,18.30
2012,08,23,14,02,18.30
2012,08,23,14,03,18.30
2012,08,23,14,04,18.30
2012,08,23,14,05,18.30
2012,08,23,14,06,18.20
2012,08,23,14,07,18.20
2012,08,23,14,08,18.20
2012,08,23,14,09,18.30
2012,08,23,14,10,18.30
2012,08,23,14,11,18.30
2012,08,23,14,12,18.30
2012,08,23,14,13,18.40
2012,08,23,14,14,18.40
2012,08,23,14,15,18.40
2012,08,23,14,16,18.40
2012,08,23,14,17,18.40
2012,08,23,14,18,18.50
2012,08,23,14,19,18.50
2012,08,23,14,20,18.50
2012,08,23,14,21,18.50
2012,08,23,14,22,18.50
2012,08,23,14,23,18.50
2012,08,23,14,24,18.50
2012,08,23,14,25,18.40
2012,08,23,14,26,18.40
2012,08,23,14,27,18.40
2012,08,23,14,28,18.40
2012,08,23,14,29,18.40
2012,08,23,14,30,18.40
2012,08,23,14,31,18.30
2012,08,23,14,32,18.30
2012,08,23,14,33,18.30
2012,08,23,14,34,18.30
2012,08,23,14,35,18.30
2012,08,23,14,36,18.20
2012,08,23,14,37,18.20
2012,08,23,14,38,18.20
2012,08,23,14,39,18.20
2012,08,23,14,40,18.20
2012,08,23,14,41,18.20
2012,08,23,14,42,18.20
2012,08,23,14,43,18.10
2012,08,23,14,44,18.10
2012,08,23,14,45,18.00
2012,08,23,14,46,18.00
2012,08,23,14,47,17.90
2012,08,23,14,48,17.90
2012,08,23,14,49,17.90
2012,08,23,14,50,17.80
2012,08,23,14,51,17.80
2012,08,23,14,52,17.80
2012,08,23,14,53,17.80
2012,08,23,14,54,17.70
2012,08,23,14,55,17.70
2012,08,23,14,56,17.70
2012,08,23,14,57,17.70
2012,08,23,14,58,17.80
2012,08,23,14,59,17.80
2012,08,23,15,00,17.80
2012,08,23,15,01,17.90
2012,08,23,15,02,17.90
2012,08,23,15,03,17.90
2012,08,23,15,04,18.00
2012,08,23,15,05,18.00
2012,08,23,15,06,18.10
2012,08,23,15,07,18.10
2012,08,23,15,08,18.20
2012,08,23,15,09,18.20
2012,08,23,15,10,18.20
2012,08,23,15,11,18.20
2012,08,23,15,12,18.30
2012,08,23,15,13,18.30
2012,08,23,15,14,18.30
2012,08,23,15,15,18.30
2012,08,23,15,16,18.30
2012,08,23,15,17,18.30
2012,08,23,15,18,18.30
2012,08,23,15,19,18.30
2012,08,23,15,20,18.30
2012,08,23,15,21,18.30
2012,08,23,15,22,18.30
2012,08,23,15,23,18.30
2012,08,23,15,24,18.30
2012,08,23,15,25,18.30
2012,08,23,15,26,18.30
2012,08,23,15,27,18.40
2012,08,23,15,28,18.40
2012,08,23,15,29,18.40
2012,08,23,15,30,18.50
2012,08,23,15,31,18.60
2012,08,23,15,32,18.60
2012,08,23,15,33,18.70
2012,08,23,15,34,18.80
2012,08,23,15,35,18.80
2012,08,23,15,36,18.90
2012,08,23,15,37,18.90
2012,08,23,15,38,18.90
2012,08,23,15,39,18.80
2012,08,23,15,40,18.80
2012,08,23,15,41,18.80
2012,08,23,15,42,18.80
2012,08,23,15,43,18.90
2012,08,23,15,44,18.90
2012,08,23,15,45,18.90
2012,08,23,15,46,18.90
2012,08,23,15,47,19.00
2012,08,23,15,48,19.00
2012,08,23,15,49,19.10
2012,08,23,15,50,19.20
2012,08,23,15,51,19.30
2012,08,23,15,52,19.40
2012,08,23,15,53,19.50
2012,08,23,15,54,19.60
2012,08,23,15,55,19.70
2012,08,23,15,56,19.70
2012,08,23,15,57,19.70
2012,08,23,15,58,19.80
2012,08,23,15,59,19.80
2012,08,23,16,00,19.80
2012,08,23,16,01,19.90
2012,08,23,16,02,19.90
2012,08,23,16,03,19.90
2012,08,23,16,04,20.00
2012,08,23,16,05,20.00
2012,08,23,16,06,20.10
2012,08,23,16,07,20.10
2012,08,23,16,08,20.10
2012,08,23,16,09,20.10
2012,08,23,16,10,20.00
2012,08,23,16,11,20.00
2012,08,23,16,12,19.90
2012,08,23,16,13,19.90
2012,08,23,16,14,19.90
2012,08,23,16,15,19.90
2012,08,23,16,16,19.90
2012,08,23,16,17,19.90
2012,08,23,16,18,20.00
2012,08,23,16,19,20.00
2012,08,23,16,20,20.00
2012,08,23,16,21,20.00
2012,08,23,16,22,20.10
2012,08,23,16,23,20.10
2012,08,23,16,24,20.20
2012,08,23,16,25,20.20
2012,08,23,16,26,20.20
2012,08,23,16,27,20.30
2012,08,23,16,28,20.30
2012,08,23,16,29,20.30
2012,08,23,16,30,20.30
2012,08,23,16,31,20.30
2012,08,23,16,32,20.30
2012,08,23,16,33,20.30
2012,08,23,16,34,20.40
2012,08,23,16,35,20.40
2012,08,23,16,36,20.40
2012,08,23,16,37,20.40
2012,08,23,16,38,20.50
2012,08,23,16,39,20.50
2012,08,23,16,40,20.60
2012,08,23,16,41,20.60
2012,08,23,16,42,20.50
2012,08,23,16,43,20.50
2012,08,23,16,44,20.40
2012,08,23,16,45,20.40
2012,08,23,16,46,20.40
2012,08,23,16,47,20.40
2012,08,23,16,48,20.40
2012,08,23,16,49,20.30
2012,08,23,16,50,20.30
2012,08,23,16,51,20.20
2012,08,23,16,52,20.20
2012,08,23,16,53,20.20
2012,08,23,16,54,20.20
2012,08,23,16,55,20.10
2012,08,23,16,56,20.10
2012,08,23,16,57,20.10
2012,08,23,16,58,20.10
2012,08,23,16,59,20.00
2012,08,23,17,00,19.90
2012,08,23,17,01,19.90
2012,08,23,17,02,19.80
2012,08,23,17,03,19.80
2012,08,23,17,04,19.70
2012,08,23,17,05,19.60
2012,08,23,17,06,19.50
2012,08,23,17,07,19.40
2012,08,23,17,08,19.30
2012,08,23,17,09,19.20
2012,08,23,17,10,19.10
2012,08,23,17,11,19.00
2012,08,23,17,12,19.00
2012,08,23,17,13,18.90
2012,08,23,17,14,18.90
2012,08,23,17,15,18.90
2012,08,23,17,16,18.90
2012,08,23,17,17,18.90
2012,08,23,17,18,18.90
2012,08,23,17,19,19.00
2012,08,23,17,20,19.00
2012,08,23,17,21,18.90
2012,08,23,17,22,18.90
2012,08,23,17,23,18.90
2012,08,23,17,24,18.80
2012,08,23,17,25,18.80